Time,TemperatureF,DewpointF,PressureIn,WindDirection,WindDirectionDegrees,WindSpeedMPH,WindSpeedGustMPH,Humidity,HourlyPrecipIn,Conditions,Clouds,dailyrainin,SoftwareType,DateUTC
2013-05-16 00:02:00,58.0,55.0,29.71,NE,43,0.0,0.0,91,0.00,,,0.00,,2013-05-16 04:02:00,
2013-05-16 00:12:00,58.0,55.0,29.71,NE,43,0.0,0.0,91,0.00,,,0.00,,2013-05-16 04:12:00,
2013-05-16 00:23:00,57.0,55.0,29.71,NE,43,0.0,0.0,92,0.00,,,0.00,,2013-05-16 04:23:00,
2013-05-16 00:33:00,57.0,55.0,29.71,NE,44,0.0,0.0,92,0.00,,,0.00,,2013-05-16 04:33:00,
2013-05-16 00:42:00,57.0,55.0,29.71,NE,44,0.0,0.0,92,0.00,,,0.00,,2013-05-16 04:42:00,
2013-05-16 00:53:00,56.0,54.0,29.71,ESE,105,0.0,0.0,93,0.00,,,0.00,,2013-05-16 04:53:00,
2013-05-16 01:02:00,56.0,54.0,29.72,NNW,342,0.0,1.0,93,0.00,,,0.00,,2013-05-16 05:02:00,
2013-05-16 01:12:00,56.0,54.0,29.72,NNW,342,0.0,1.0,93,0.00,,,0.00,,2013-05-16 05:12:00,
2013-05-16 01:22:00,56.0,54.0,29.72,NNE,28,0.0,0.0,93,0.00,,,0.00,,2013-05-16 05:22:00,
2013-05-16 01:32:00,55.0,53.0,29.72,North,6,0.0,1.0,94,0.00,,,0.00,,2013-05-16 05:32:00,
2013-05-16 01:42:00,55.0,53.0,29.72,North,6,0.0,1.0,94,0.00,,,0.00,,2013-05-16 05:42:00,
2013-05-16 01:52:00,55.0,54.0,29.72,North,6,0.0,0.0,95,0.00,,,0.00,,2013-05-16 05:52:00,
2013-05-16 02:02:00,55.0,54.0,29.72,North,6,0.0,0.0,95,0.00,,,0.00,,2013-05-16 06:02:00,
2013-05-16 02:12:00,55.0,54.0,29.72,North,6,0.0,0.0,95,0.00,,,0.00,,2013-05-16 06:12:00,
2013-05-16 02:23:00,55.0,54.0,29.72,North,6,0.0,0.0,95,0.00,,,0.00,,2013-05-16 06:23:00,
2013-05-16 02:33:00,54.0,53.0,29.72,North,5,0.0,0.0,95,0.00,,,0.00,,2013-05-16 06:33:00,
2013-05-16 02:43:00,54.0,53.0,29.72,North,5,0.0,0.0,95,0.00,,,0.00,,2013-05-16 06:43:00,
2013-05-16 02:53:00,54.0,53.0,29.72,North,6,0.0,0.0,95,0.00,,,0.00,,2013-05-16 06:53:00,
2013-05-16 03:02:00,54.0,53.0,29.72,North,6,0.0,0.0,95,0.00,,,0.00,,2013-05-16 07:02:00,
2013-05-16 03:12:00,54.0,53.0,29.72,North,6,0.0,0.0,95,0.00,,,0.00,,2013-05-16 07:12:00,
2013-05-16 03:24:00,53.0,52.0,29.72,North,6,0.0,0.0,96,0.00,,,0.00,,2013-05-16 07:24:00,
2013-05-16 03:34:00,53.0,52.0,29.71,North,6,0.0,1.0,95,0.00,,,0.00,,2013-05-16 07:34:00,
2013-05-16 03:44:00,53.0,52.0,29.71,North,6,0.0,1.0,95,0.00,,,0.00,,2013-05-16 07:44:00,
2013-05-16 03:54:00,53.0,52.0,29.71,NNE,13,0.0,1.0,96,0.00,,,0.00,,2013-05-16 07:54:00,
2013-05-16 04:03:00,53.0,52.0,29.71,North,2,0.0,2.0,96,0.00,,,0.00,,2013-05-16 08:03:00,
2013-05-16 04:13:00,53.0,52.0,29.71,North,2,0.0,2.0,96,0.00,,,0.00,,2013-05-16 08:13:00,
2013-05-16 04:24:00,53.0,52.0,29.71,North,356,0.0,1.0,96,0.00,,,0.00,,2013-05-16 08:24:00,
2013-05-16 04:35:00,53.0,52.0,29.72,North,356,0.0,0.0,96,0.00,,,0.00,,2013-05-16 08:35:00,
2013-05-16 04:45:00,53.0,52.0,29.72,North,356,0.0,0.0,96,0.00,,,0.00,,2013-05-16 08:45:00,
2013-05-16 04:54:00,53.0,52.0,29.72,SSE,150,0.0,0.0,95,0.00,,,0.00,,2013-05-16 08:54:00,
2013-05-16 05:04:00,52.0,51.0,29.72,South,169,0.0,0.0,96,0.00,,,0.00,,2013-05-16 09:04:00,
2013-05-16 05:14:00,52.0,51.0,29.72,South,169,0.0,0.0,96,0.00,,,0.00,,2013-05-16 09:14:00,
2013-05-16 05:24:00,52.0,51.0,29.72,SSE,168,0.0,0.0,96,0.00,,,0.00,,2013-05-16 09:24:00,
2013-05-16 05:35:00,51.0,50.0,29.72,SSE,168,0.0,0.0,96,0.00,,,0.00,,2013-05-16 09:35:00,
2013-05-16 05:45:00,51.0,50.0,29.72,SSE,168,0.0,0.0,96,0.00,,,0.00,,2013-05-16 09:45:00,
2013-05-16 05:55:00,51.0,50.0,29.72,SSE,168,0.0,0.0,96,0.00,,,0.00,,2013-05-16 09:55:00,
2013-05-16 06:05:00,51.0,50.0,29.72,SSE,168,0.0,0.0,96,0.00,,,0.00,,2013-05-16 10:05:00,
2013-05-16 06:15:00,51.0,50.0,29.72,SSE,168,0.0,0.0,96,0.00,,,0.00,,2013-05-16 10:15:00,
2013-05-16 06:24:00,50.0,49.0,29.73,SSE,158,0.0,0.0,96,0.00,,,0.00,,2013-05-16 10:24:00,
2013-05-16 06:36:00,50.0,49.0,29.74,SSE,158,0.0,0.0,96,0.00,,,0.00,,2013-05-16 10:36:00,
2013-05-16 06:45:00,50.0,49.0,29.74,SSE,158,0.0,0.0,96,0.00,,,0.00,,2013-05-16 10:45:00,
2013-05-16 06:56:00,50.0,49.0,29.75,SSE,153,0.0,0.0,96,0.00,,,0.00,,2013-05-16 10:56:00,
2013-05-16 07:05:00,50.0,49.0,29.76,SSE,151,0.0,0.0,97,0.00,,,0.00,,2013-05-16 11:05:00,
2013-05-16 07:15:00,50.0,49.0,29.76,SSE,151,0.0,0.0,97,0.00,,,0.00,,2013-05-16 11:15:00,
2013-05-16 07:25:00,51.0,50.0,29.77,NNE,27,0.0,1.0,97,0.00,,,0.00,,2013-05-16 11:25:00,
2013-05-16 07:35:00,52.0,51.0,29.77,NNE,27,0.0,0.0,97,0.00,,,0.00,,2013-05-16 11:35:00,
2013-05-16 07:46:00,52.0,51.0,29.77,NNE,27,0.0,0.0,97,0.00,,,0.00,,2013-05-16 11:46:00,
2013-05-16 07:56:00,54.0,53.0,29.78,NNE,27,0.0,0.0,95,0.00,,,0.00,,2013-05-16 11:56:00,
2013-05-16 08:06:00,56.0,52.0,29.78,North,4,0.0,3.0,86,0.00,,,0.00,,2013-05-16 12:06:00,
2013-05-16 08:13:00,56.0,52.0,29.78,North,4,0.0,3.0,86,0.00,,,0.00,,2013-05-16 12:13:00,
2013-05-16 08:23:00,58.0,52.0,29.78,NNW,347,0.0,2.0,80,0.00,,,0.00,,2013-05-16 12:23:00,
2013-05-16 08:35:00,59.0,52.0,29.79,NW,326,0.0,2.0,77,0.00,,,0.00,,2013-05-16 12:35:00,
2013-05-16 08:45:00,59.0,52.0,29.79,NW,326,0.0,2.0,77,0.00,,,0.00,,2013-05-16 12:45:00,
2013-05-16 08:53:00,61.0,53.0,29.78,NNW,328,0.0,1.0,76,0.00,,,0.00,,2013-05-16 12:53:00,
2013-05-16 09:04:00,62.0,54.0,29.79,NNW,345,0.0,0.0,74,0.00,,,0.00,,2013-05-16 13:04:00,
2013-05-16 09:12:00,62.0,54.0,29.79,NNW,345,0.0,0.0,74,0.00,,,0.00,,2013-05-16 13:12:00,
2013-05-16 09:27:00,64.0,54.0,29.80,NNW,333,0.0,2.0,70,0.00,,,0.00,,2013-05-16 13:27:00,
2013-05-16 09:35:00,66.0,54.0,29.80,NNW,332,0.0,0.0,66,0.00,,,0.00,,2013-05-16 13:35:00,
2013-05-16 09:43:00,66.0,54.0,29.80,NNW,332,0.0,0.0,66,0.00,,,0.00,,2013-05-16 13:43:00,
2013-05-16 09:55:00,66.0,54.0,29.80,WSW,238,0.0,1.0,65,0.00,,,0.00,,2013-05-16 13:55:00,
2013-05-16 10:05:00,66.0,53.0,29.80,North,357,0.0,2.0,62,0.00,,,0.00,,2013-05-16 14:05:00,
2013-05-16 10:16:00,66.0,53.0,29.80,North,357,0.0,2.0,62,0.00,,,0.00,,2013-05-16 14:16:00,
2013-05-16 10:23:00,68.0,51.0,29.79,North,358,0.0,2.0,54,0.00,,,0.00,,2013-05-16 14:23:00,
2013-05-16 10:37:00,69.0,47.0,29.78,NNW,348,1.0,3.0,46,0.00,,,0.00,,2013-05-16 14:37:00,
2013-05-16 10:47:00,69.0,47.0,29.78,NNW,348,1.0,3.0,46,0.00,,,0.00,,2013-05-16 14:47:00,
2013-05-16 10:56:00,70.0,46.0,29.77,NNW,346,1.0,6.0,43,0.00,,,0.00,,2013-05-16 14:56:00,
2013-05-16 11:08:00,70.0,45.0,29.78,East,91,0.0,10.0,40,0.00,,,0.00,,2013-05-16 15:08:00,
2013-05-16 11:17:00,70.0,45.0,29.78,East,91,0.0,10.0,40,0.00,,,0.00,,2013-05-16 15:17:00,
2013-05-16 11:28:00,72.0,45.0,29.78,WNW,283,2.0,5.0,38,0.00,,,0.00,,2013-05-16 15:28:00,
2013-05-16 11:40:00,74.0,44.0,29.78,WNW,288,2.0,6.0,34,0.00,,,0.00,,2013-05-16 15:40:00,
2013-05-16 11:50:00,74.0,44.0,29.78,WNW,288,2.0,6.0,34,0.00,,,0.00,,2013-05-16 15:50:00,
2013-05-16 12:00:00,75.0,42.0,29.78,NW,323,2.0,6.0,31,0.00,,,0.00,,2013-05-16 16:00:00,
2013-05-16 12:09:00,76.0,41.0,29.78,WNW,295,1.0,8.0,29,0.00,,,0.00,,2013-05-16 16:09:00,
2013-05-16 12:20:00,76.0,41.0,29.78,WNW,295,1.0,8.0,29,0.00,,,0.00,,2013-05-16 16:20:00,
2013-05-16 12:30:00,77.0,43.0,29.77,ESE,110,0.0,6.0,30,0.00,,,0.00,,2013-05-16 16:30:00,
2013-05-16 12:40:00,78.0,-99.9,29.77,NNW,336,2.0,6.0,29,0.00,,,0.00,,2013-05-16 16:40:00,
2013-05-16 12:51:00,78.0,43.0,29.77,NNW,336,2.0,6.0,29,0.00,,,0.00,,2013-05-16 16:51:00,
2013-05-16 13:00:00,77.0,41.0,29.76,North,357,2.0,7.0,28,0.00,,,0.00,,2013-05-16 17:00:00,
2013-05-16 13:10:00,78.0,41.0,29.76,WSW,252,2.0,8.0,27,0.00,,,0.00,,2013-05-16 17:10:00,
2013-05-16 13:20:00,78.0,41.0,29.76,WSW,252,2.0,8.0,27,0.00,,,0.00,,2013-05-16 17:20:00,
2013-05-16 13:31:00,79.0,42.0,29.75,WSW,238,1.0,11.0,27,0.00,,,0.00,,2013-05-16 17:31:00,
2013-05-16 13:40:00,81.0,43.0,29.75,NW,324,3.0,8.0,26,0.00,,,0.00,,2013-05-16 17:40:00,
2013-05-16 13:50:00,-999.0,-99.9,29.75,NNW,343,6.0,19.0,27,0.00,,,0.00,,2013-05-16 17:50:00,
2013-05-16 14:00:00,80.0,-99.9,29.75,NNW,343,6.0,19.0,27,0.00,,,0.00,,2013-05-16 18:00:00,
2013-05-16 14:10:00,80.0,43.0,29.75,WSW,245,6.0,13.0,27,0.00,,,0.00,,2013-05-16 18:10:00,
2013-05-16 14:20:00,80.0,43.0,29.75,WSW,245,6.0,13.0,27,0.00,,,0.00,,2013-05-16 18:20:00,
2013-05-16 14:30:00,-999.0,-99.9,29.74,NW,318,6.0,14.0,27,0.00,,,0.00,,2013-05-16 18:30:00,
2013-05-16 14:40:00,-999.0,-99.9,29.73,West,262,3.0,7.0,28,0.00,,,0.00,,2013-05-16 18:40:00,
2013-05-16 14:50:00,-999.0,-99.9,29.73,West,262,3.0,7.0,28,0.00,,,0.00,,2013-05-16 18:50:00,
2013-05-16 15:00:00,-999.0,-99.9,29.73,WSW,238,5.0,14.0,33,0.00,,,0.00,,2013-05-16 19:00:00,
2013-05-16 15:11:00,80.0,-99.9,29.73,WSW,245,6.0,14.0,35,0.00,,,0.00,,2013-05-16 19:11:00,
2013-05-16 15:20:00,80.0,50.0,29.73,WSW,245,6.0,14.0,35,0.00,,,0.00,,2013-05-16 19:20:00,
2013-05-16 15:30:00,80.0,51.0,29.73,SW,234,6.0,13.0,36,0.00,,,0.00,,2013-05-16 19:30:00,
2013-05-16 15:40:00,80.0,-99.9,29.72,SSW,206,3.0,17.0,36,0.00,,,0.00,,2013-05-16 19:40:00,
2013-05-16 15:51:00,-999.0,-99.9,29.72,SSW,206,3.0,17.0,36,0.00,,,0.00,,2013-05-16 19:51:00,
2013-05-16 16:00:00,81.0,-99.9,29.72,SE,140,5.0,13.0,36,0.00,,,0.00,,2013-05-16 20:00:00,
2013-05-16 16:10:00,-999.0,-99.9,29.71,SSE,160,3.0,9.0,36,0.00,,,0.00,,2013-05-16 20:10:00,
2013-05-16 16:20:00,81.0,-99.9,29.71,SSE,160,3.0,9.0,36,0.00,,,0.00,,2013-05-16 20:20:00,
2013-05-16 16:30:00,79.0,-99.9,29.71,WSW,243,4.0,12.0,38,0.00,,,0.00,,2013-05-16 20:30:00,
2013-05-16 16:41:00,-999.0,-99.9,29.71,West,264,5.0,12.0,37,0.00,,,0.00,,2013-05-16 20:41:00,
2013-05-16 16:51:00,80.0,51.0,29.71,West,264,5.0,12.0,37,0.00,,,0.00,,2013-05-16 20:51:00,
2013-05-16 17:00:00,80.0,52.0,29.71,West,276,6.0,12.0,38,0.00,,,0.00,,2013-05-16 21:00:00,
2013-05-16 17:10:00,-999.0,-99.9,29.71,East,101,2.0,12.0,40,0.00,,,0.00,,2013-05-16 21:10:00,
2013-05-16 17:20:00,79.0,-99.9,29.71,East,101,2.0,12.0,40,0.00,,,0.00,,2013-05-16 21:20:00,
2013-05-16 17:29:00,79.0,52.0,29.71,West,262,3.0,9.0,39,0.00,,,0.00,,2013-05-16 21:29:00,
2013-05-16 17:38:00,79.0,50.0,29.71,West,260,3.0,7.0,37,0.00,,,0.00,,2013-05-16 21:38:00,
2013-05-16 17:50:00,79.0,-99.9,29.71,West,260,3.0,7.0,37,0.00,,,0.00,,2013-05-16 21:50:00,
2013-05-16 18:00:00,-999.0,-99.9,29.70,West,271,0.0,3.0,35,0.00,,,0.00,,2013-05-16 22:00:00,
2013-05-16 18:08:00,82.0,50.0,29.70,NW,314,3.0,6.0,33,0.00,,,0.00,,2013-05-16 22:08:00,
2013-05-16 18:21:00,82.0,50.0,29.70,NW,314,3.0,6.0,33,0.00,,,0.00,,2013-05-16 22:21:00,
2013-05-16 18:31:00,81.0,48.0,29.70,SW,233,0.0,6.0,32,0.00,,,0.00,,2013-05-16 22:31:00,
2013-05-16 18:40:00,80.0,46.0,29.70,WNW,288,2.0,9.0,30,0.00,,,0.00,,2013-05-16 22:40:00,
2013-05-16 18:51:00,80.0,46.0,29.70,WNW,288,2.0,9.0,30,0.00,,,0.00,,2013-05-16 22:51:00,
2013-05-16 19:00:00,81.0,47.0,29.70,West,261,1.0,9.0,30,0.00,,,0.00,,2013-05-16 23:00:00,
2013-05-16 19:06:00,81.0,47.0,29.71,WNW,288,0.0,4.0,30,0.00,,,0.00,,2013-05-16 23:06:00,
2013-05-16 19:16:00,81.0,47.0,29.71,WNW,288,0.0,4.0,30,0.00,,,0.00,,2013-05-16 23:16:00,
2013-05-16 19:24:00,82.0,47.0,29.72,West,273,1.0,7.0,29,0.00,,,0.00,,2013-05-16 23:24:00,
2013-05-16 19:35:00,82.0,39.0,29.72,NNW,334,2.0,10.0,22,0.00,,,0.00,,2013-05-16 23:35:00,
2013-05-16 19:45:00,82.0,39.0,29.72,NNW,334,2.0,10.0,22,0.00,,,0.00,,2013-05-16 23:45:00,
2013-05-16 19:54:00,82.0,39.0,29.73,NNE,23,2.0,7.0,22,0.00,,,0.00,,2013-05-16 23:54:00,
2013-05-16 20:03:00,81.0,40.0,29.73,North,4,1.0,4.0,23,0.00,,,0.00,,2013-05-17 00:03:00,
2013-05-16 20:13:00,81.0,40.0,29.73,North,4,1.0,4.0,23,0.00,,,0.00,,2013-05-17 00:13:00,
2013-05-16 20:22:00,79.0,40.0,29.74,NW,309,0.0,4.0,25,0.00,,,0.00,,2013-05-17 00:22:00,
2013-05-16 20:33:00,79.0,40.0,29.74,NW,309,0.0,4.0,25,0.00,,,0.00,,2013-05-17 00:33:00,
2013-05-16 20:43:00,79.0,40.0,29.74,NW,309,0.0,4.0,25,0.00,,,0.00,,2013-05-17 00:43:00,
2013-05-16 20:53:00,74.0,42.0,29.75,NNW,335,0.0,1.0,32,0.00,,,0.00,,2013-05-17 00:53:00,
2013-05-16 21:03:00,73.0,42.0,29.76,NW,312,0.0,2.0,33,0.00,,,0.00,,2013-05-17 01:03:00,
2013-05-16 21:12:00,73.0,42.0,29.76,NW,312,0.0,2.0,33,0.00,,,0.00,,2013-05-17 01:12:00,
2013-05-16 21:23:00,73.0,42.0,29.77,NW,324,0.0,4.0,33,0.00,,,0.00,,2013-05-17 01:23:00,
2013-05-16 21:32:00,72.0,43.0,29.78,WNW,293,0.0,1.0,35,0.00,,,0.00,,2013-05-17 01:32:00,
2013-05-16 21:43:00,72.0,43.0,29.78,WNW,293,0.0,1.0,35,0.00,,,0.00,,2013-05-17 01:43:00,
2013-05-16 21:52:00,71.0,42.0,29.78,NNW,332,0.0,2.0,35,0.00,,,0.00,,2013-05-17 01:52:00,
2013-05-16 22:02:00,70.0,42.0,29.79,NNW,338,0.0,1.0,36,0.00,,,0.00,,2013-05-17 02:02:00,
2013-05-16 22:11:00,70.0,42.0,29.79,NNW,338,0.0,1.0,36,0.00,,,0.00,,2013-05-17 02:11:00,
2013-05-16 22:22:00,68.0,46.0,29.80,North,355,0.0,1.0,45,0.00,,,0.00,,2013-05-17 02:22:00,
2013-05-16 22:33:00,64.0,51.0,29.80,North,356,0.0,1.0,62,0.00,,,0.00,,2013-05-17 02:33:00,
2013-05-16 22:53:00,64.0,49.0,29.80,NNW,336,0.0,0.0,58,0.00,,,0.00,,2013-05-17 02:53:00,
2013-05-16 23:02:00,63.0,47.0,29.80,North,351,0.0,1.0,56,0.00,,,0.00,,2013-05-17 03:02:00,
2013-05-16 23:11:00,63.0,47.0,29.80,North,351,0.0,1.0,56,0.00,,,0.00,,2013-05-17 03:11:00,
2013-05-16 23:23:00,64.0,43.0,29.81,NNE,32,0.0,3.0,47,0.00,,,0.00,,2013-05-17 03:23:00,
2013-05-16 23:34:00,62.0,49.0,29.81,NNE,30,0.0,1.0,62,0.00,,,0.00,,2013-05-17 03:34:00,
2013-05-16 23:53:00,64.0,42.0,29.82,NNW,332,0.0,2.0,44,0.00,,,0.00,,2013-05-17 03:53:00,